Location: Warwick
(41.7000°N, 71.4170°W)
Time: 15:06:01
(UTC-04:00)

BREEZE-M DEB (TANK) - Visible Passes

Search period start: 25 September 2016 00:00
Search period end: 05 October 2016 00:00
Orbit: 304 x 15877 km, 49.5° (Epoch: 25 September)

Date Brightness Start Highest point End Pass type
(mag) Time Alt. Az. Time Alt. Az. Time Alt. Az.
25 Sep 5.8 05:46:35 10° SSE 05:50:40 20° ESE 05:59:57 10° ENE visible
26 Sep 5.7 05:49:39 10° SSE 05:53:52 23° ESE 06:04:26 10° ENE visible
27 Sep 5.5 05:52:47 10° SSE 05:57:05 27° ESE 06:08:52 10° ENE visible
28 Sep 5.4 05:55:58 10° S 06:00:19 31° ESE 06:13:15 10° ENE visible
28 Sep 8.6 15:56:55 10° WNW 16:40:14 50° WSW 18:43:52 10° SSW visible
29 Sep 5.3 05:59:11 10° S 06:03:34 35° ESE 06:17:35 10° ENE visible
29 Sep 8.6 16:00:47 10° WNW 16:43:59 48° WSW 18:44:56 10° SSW visible
30 Sep 5.2 06:02:26 10° S 06:06:50 39° ESE 06:21:55 10° ENE visible
30 Sep 8.6 16:04:39 10° WNW 16:47:40 45° WSW 18:45:43 10° SSW visible
01 Oct 5.2 06:05:42 10° SSW 06:10:07 44° ESE 06:26:13 10° ENE visible
01 Oct 8.7 16:08:32 10° WNW 16:51:17 43° WSW 18:46:13 10° SSW visible
02 Oct 5.1 06:08:59 10° SSW 06:13:26 49° SE 06:30:32 10° ENE visible
02 Oct 8.7 16:12:27 10° WNW 16:54:52 41° WSW 18:46:25 10° SSW visible
03 Oct 4.9 06:12:16 10° SSW 06:16:46 55° SE 06:34:52 10° ENE visible
03 Oct 8.8 16:16:24 10° WNW 16:58:22 39° WSW 18:46:17 10° SSW visible
04 Oct 4.8 06:15:35 10° SSW 06:20:08 61° SE 06:39:11 10° ENE visible
04 Oct 8.8 16:20:22 10° WNW 17:01:49 36° WSW 18:45:47 10° SW visible
